Location: Dalsze ?ony
(50.1027°N, 20.5113°E)
Time: 19:15:58
(UTC+00:00)

Daily predictions for brighter satellites

Satellite Brightness Start Highest point End
(mag) Time Altitude Azimuth Time Altitude Azimuth Time Altitude Azimuth
NOSS 2-1 (C) 3.5 17:29:51 10° NW 17:33:24 61° NE 17:38:09 10° SE
Cosmos 1328 Rocket 3.9 17:30:45 10° N 17:34:52 44° ENE 17:38:59 10° SSE
Helios 1A 3.3 17:33:40 10° NNE 17:37:33 41° E 17:41:24 10° S
COSMOS 2428 3.1 17:33:19 10° S 17:38:35 40° ESE 17:43:54 10° NE
Cosmos 2292 Rocket 4.5 17:38:07 10° NNW 17:41:58 43° W 17:45:06 10° SSW
BREEZE-M R/B 3.6 17:38:18 10° W 17:42:10 82° S 17:53:44 10° E
Cosmos 1536 4.1 17:41:41 10° SE 17:44:24 19° E 17:47:09 10° NE
Meteor 1-4 Rocket 2.6 17:42:50 10° N 17:45:18 32° ENE 17:47:45 10° SE
Cosmos 2233 Rocket 4.0 17:39:43 10° S 17:45:50 84° E 17:52:03 10° N
Meteor 2-4 Rocket 4.2 17:40:17 10° NNW 17:46:12 70° W 17:52:02 10° S
SKYMED 3 4.4 17:43:31 10° NNE 17:47:38 62° ESE 17:51:42 10° S
CARTOSAT-1 3.9 17:44:58 10° SE 17:49:01 46° ENE 17:53:06 10° N
USA 290 2.9 17:46:44 10° N 17:49:50 38° ENE 17:52:42 12° SE
CZ-4 R/B 1.2 17:46:44 10° SSE 17:50:30 69° ENE 17:54:22 10° N
SPOT 5 4.2 17:48:07 11° ESE 17:51:15 20° ENE 17:54:29 10° NNE
Cosmos 1151 Rocket 4.0 17:48:48 10° NNW 17:52:56 50° W 17:57:02 10° S
BlueWalker 3 2.2 17:49:15 10° WNW 17:52:58 61° SSW 17:56:21 12° SE
Cosmos 2278 Rocket 2.4 17:47:36 10° NNW 17:53:10 54° NE 17:58:42 10° SE
Cosmos 1726 1.3 17:50:43 10° S 17:53:31 89° ENE 17:56:19 10° N
Cosmos 44 Rocket 4.1 17:49:09 10° NW 17:53:45 50° WSW 17:58:15 10° SSE
CZ-4B DEB 4.2 17:48:25 10° SSE 17:53:56 89° ENE 17:59:28 10° NNW
ISS -1.7 17:52:49 10° SSE 17:54:19 12° SE 17:54:42 12° SE
NOSS 0 Rocket 4.5 17:50:57 10° S 17:56:32 36° ESE 18:02:09 10° NE
Cosmos 1626 4.5 17:55:02 10° NW 17:57:23 21° W 17:59:42 10° SW
Cosmos 2061 Rocket 4.3 17:51:07 10° SSW 17:57:32 79° W 18:04:01 10° N
Cosmos 1674 2.2 17:55:09 10° N 17:58:31 82° E 18:01:50 10° SSE
PAYLOAD B 4.2 17:53:48 10° SSE 17:59:24 78° ENE 18:05:01 10° NNW
CZ-4B R/B 3.3 17:54:21 10° SSE 17:59:44 61° ENE 18:05:02 10° N
USA 186 1.8 17:56:43 10° SSE 17:59:52 57° ENE 18:03:04 10° N
Resurs 1-3 4.3 17:57:07 10° S 18:01:22 57° W 18:05:40 10° NNW
SeaSat 1 4.2 17:57:21 10° NNE 18:01:50 36° NW 18:06:17 10° WSW
Cosmos 1733 4.1 18:00:42 12° SE 18:02:59 22° E 18:05:43 10° NE
Iridium 4 Rocket 3.2 18:00:35 10° N 18:04:47 74° W 18:08:54 10° S
Cosmos 841 Rocket 4.3 18:01:13 10° SW 18:06:17 55° WNW 18:11:23 10° NNE
SL-08 R/B 3.6 18:02:23 10° NNE 18:07:20 81° WNW 18:12:15 10° SSW
Cosmos 1842 3.0 18:05:10 10° N 18:08:47 68° E 18:12:22 10° SSE
USA 306 2.5 18:06:32 10° SW 18:09:34 49° SE 18:12:28 14° ENE
NOSS 2-1 (E) 3.6 18:06:21 10° NW 18:10:05 74° SW 18:14:46 12° SE
Meteor 1-14 Rocket 4.2 18:04:43 10° S 18:10:08 60° E 18:15:35 10° NNE
Cosmos 2360 Rocket 3.8 18:06:38 10° WSW 18:11:53 38° NW 18:17:09 10° NNE
Lacrosse 4 Rocket 2.7 18:09:16 10° NW 18:13:20 40° WSW 18:17:21 10° S
Sich 1 4.4 18:12:26 18° ESE 18:13:24 19° E 18:16:28 10° NE
CZ-4B R/B 3.1 18:09:47 10° S 18:13:36 69° WSW 18:17:37 10° NNW
Cosmos 1356 Rocket 3.4 18:10:00 10° N 18:14:10 64° ENE 18:18:11 11° SSE
Meteor 1-11 Rocket 4.2 18:10:01 10° SSE 18:15:06 36° E 18:20:08 10° NNE
Cosmos 1340 4.1 18:12:47 10° SW 18:15:50 36° WNW 18:18:54 10° N
ARGOS Delta rocket 4.2 18:10:53 10° S 18:15:59 74° W 18:20:49 10° NNW
Okean 3 Rocket 3.8 18:11:54 10° SSE 18:16:11 47° E 18:20:27 10° NNE
ERS-1 Rocket 4.2 18:16:23 17° E 18:18:46 24° ENE 18:22:44 10° N
NOSS 2-1 (D) 3.9 18:15:05 10° NW 18:18:47 60° SW 18:23:15 13° SSE
Cosmos 1707 2.4 18:16:17 10° N 18:19:50 76° E 18:23:04 12° SSE
Okean O Rocket 1.7 18:17:29 14° SE 18:21:09 56° ENE 18:25:29 10° N
USA 276 1.8 18:19:01 10° W 18:21:51 66° SSW 18:22:48 34° ESE
Cosmos 2237 Rocket 2.7 18:17:43 10° S 18:22:49 37° ESE 18:27:56 10° NE
Cosmos 2322 Rocket 4.3 18:18:11 10° WSW 18:23:06 29° NW 18:28:03 10° NNE
Cosmos 1818 3.8 18:18:43 10° SW 18:24:11 73° NW 18:29:42 10° NE
Cosmos 1515 Rocket 3.5 18:20:31 10° N 18:24:50 66° ENE 18:28:28 14° SSE
Cosmos 1125 Rocket 3.6 18:19:46 10° NNW 18:24:55 58° ENE 18:28:26 20° SE
PSLV R/B 4.0 18:27:39 27° SE 18:29:08 43° ENE 18:32:32 10° N
Meteor 2-10 4.4 18:24:15 10° SSE 18:29:35 50° E 18:35:05 10° NNE
Cosmos 2219 Rocket 3.3 18:25:08 10° SW 18:30:36 48° NW 18:36:07 10° NNE
CSL-04 Rocket 3.6 18:25:40 10° SSE 18:31:02 88° WSW 18:36:24 10° NNW
Resurs 01 Rocket 1.9 18:27:14 10° S 18:31:39 69° WSW 18:36:05 10° NNW
ATLAS 2AS CENTAUR R/B 4.3 18:25:26 10° W 18:31:45 32° NNW 18:37:53 10° NE
Cosmos 2333 Rocket 4.3 18:35:09 10° WSW 18:40:07 29° NW 18:45:08 10° NNE
Okean-O 2.8 18:39:46 28° SE 18:41:51 54° ENE 18:46:10 10° N
Cosmos 1766 Rocket 4.4 18:38:53 10° SSW 18:43:08 53° WNW 18:47:27 10° N
Cosmos 1500 Rocket 4.0 18:41:48 29° SE 18:43:22 40° E 18:47:27 10° NNE
Cosmos 1743 Rocket 4.1 18:48:52 34° E 18:49:09 34° E 18:53:05 10° NNE
Cosmos 2369 Rocket 3.5 18:46:46 10° NNW 18:51:38 27° NE 18:53:56 21° E
Cosmos 1980 3.6 18:46:17 10° SSW 18:51:52 63° ESE 18:57:30 10° NE
Cosmos 2208 Rocket 4.3 18:49:48 13° S 18:54:07 44° ESE 18:59:09 10° NE
Terra 2.5 18:53:03 32° E 18:54:08 36° ENE 18:58:27 10° N
In-Cosmos 22 4.3 18:49:27 10° NNW 18:55:13 82° W 18:59:43 16° S
NOSS 3-3 (C) 4.2 18:51:17 10° S 18:56:07 35° ESE 19:01:41 10° NE
Cosmos 1408 Rocket 3.4 18:56:02 19° S 18:59:08 75° E 19:03:33 10° NNE
USA 59 Rocket 1.7 19:00:34 10° WNW 19:04:05 29° SW 19:07:20 16° S
USA 267 3.6 19:02:46 22° E 19:06:57 57° NNE 19:13:20 10° WNW
Cosmos 1943 Rocket 2.3 19:01:34 10° NNW 19:07:03 70° WSW 19:09:57 29° S
ACS3 Solar Sail 2.1 19:01:57 13° S 19:07:42 73° WSW 19:14:08 10° NNW
NOSS 3-3 (A) 3.9 19:06:15 10° SSW 19:11:22 47° ESE 19:17:19 10° NE
Cosmos 1315 Rocket 2.9 19:07:39 10° NNW 19:11:37 71° W 19:12:48 43° S
Cosmos 1975 3.9 19:13:44 29° NE 19:13:44 29° NE 19:16:03 10° NNE
Cosmos 1428 Rocket 4.4 19:06:15 10° N 19:12:24 90° NNE 19:16:03 26° S
Cosmos 1536 4.1 19:16:26 10° SW 19:20:01 39° WNW 19:23:39 10° N
SL-16 R/B 3.3 19:23:40 26° ENE 19:23:40 26° ENE 19:26:45 10° NE
CRYOSAT 2 4.2 19:17:28 10° N 19:22:23 77° E 19:23:47 47° S
COSMOS 2428 3.9 19:17:24 10° WSW 19:22:49 43° NW 19:28:18 10° NNE
Cosmos 1805 Rocket 3.4 19:22:56 55° S 19:23:51 87° E 19:28:13 10° N
CZ-4 R/B 4.3 19:23:54 10° WSW 19:25:30 12° W 19:27:08 10° WNW
Spot 2 Rocket 3.5 19:27:19 55° ESE 19:27:59 60° ENE 19:32:57 10° N
Cosmos 2195 Rocket 4.5 19:21:54 10° NNW 19:28:02 79° W 19:31:10 31° S
SPOT 5 3.1 19:27:16 38° SSW 19:28:55 62° WSW 19:33:23 10° NNW
BlueWalker 3 4.3 19:28:26 10° W 19:30:23 14° SW 19:30:35 14° SW
ISS -1.1 19:27:15 10° SW 19:27:44 13° SW 19:27:44 13° SW
SL-14 R/B 3.2 19:27:09 10° NNW 19:30:52 74° W 19:30:52 74° W
Cosmos 1092 Rocket 4.0 19:27:13 10° N 19:33:36 87° W 19:36:17 37° S
NOSS 3-4 (A) 4.0 19:27:46 10° NW 19:34:18 61° NE 19:36:56 40° E
NOSS 3-4 (C) 4.0 19:27:53 10° NW 19:34:25 60° NE 19:37:03 40° E
Cosmos 1862 Rocket 4.1 19:30:55 10° N 19:34:40 47° NE 19:34:40 47° NE
Meteor 1-23 Rocket 4.4 19:30:18 10° NNW 19:35:54 68° W 19:38:15 36° S
Cosmos 2026 Rocket 4.0 19:29:46 10° N 19:36:03 82° W 19:38:38 38° S
Cosmos 2278 Rocket 3.7 19:32:06 10° NW 19:36:58 30° WSW 19:40:33 16° SSW
Cosmos 1805 3.6 19:38:51 58° WNW 19:38:51 58° WNW 19:42:14 10° N
Cosmos 1707 Rocket 3.8 19:35:34 10° N 19:39:33 59° NE 19:39:33 59° NE
Cosmos 158 Rocket 4.0 19:36:16 10° SSW 19:41:08 69° WNW 19:46:01 10° NNE
Cosmos 2298 Rocket 4.2 19:35:53 10° NNW 19:41:09 67° WSW 19:42:21 51° SSW
Cosmos 1656 Rocket 3.6 19:36:00 10° NNW 19:41:40 67° ENE 19:42:25 60° E
USA 306 3.4 19:38:49 10° W 19:41:33 46° NW 19:41:33 46° NW
Cosmos 2150 Rocket 4.2 19:39:07 10° NNW 19:44:14 63° WSW 19:45:14 51° SSW
Aureole 3 Rocket 4.2 19:40:27 10° SSW 19:47:27 64° WNW 19:52:27 10° N
Cosmos 1634 Rocket 3.9 19:47:05 44° S 19:49:16 84° E 19:55:38 10° N
Sich 1 3.8 19:49:04 34° SW 19:50:26 48° WNW 19:54:38 10° N
MOS 1 Rocket 4.0 19:49:57 41° SSW 19:51:24 54° W 19:56:34 10° NNW
ERS-1 Rocket 3.3 19:56:18 51° SW 19:57:08 58° W 20:02:07 10° NNW
IRS-1C Rocket 4.5 19:56:16 48° SSW 19:57:25 59° WSW 20:02:39 10° NNW
Okean O Rocket 4.0 19:54:50 11° SW 19:57:45 19° W 20:00:55 10° NW
Ariane Rocket 2.8 20:00:30 87° SW 20:00:33 87° WSW 20:05:40 10° NNW
Cosmos 2237 Rocket 3.2 20:01:24 10° SW 20:06:47 45° NW 20:12:12 10° NNE
Cosmos 2142 Rocket 4.3 20:11:03 71° E 20:11:03 71° E 20:17:08 10° NNE
Cosmos 2228 Rocket 3.7 20:08:45 10° NNW 20:12:48 56° WNW 20:12:48 56° WNW
Cosmos 2297 3.6 20:08:01 10° NNW 20:13:40 85° WSW 20:13:40 85° WSW
SPOT 3 Rocket 3.8 20:23:21 60° W 20:23:21 60° W 20:28:18 10° NNW
SL-08 ROCKET BODY 4.4 20:18:00 10° N 20:23:59 71° ENE 20:23:59 71° ENE
ATLAS 2AS CENTAUR R/B 4.4 20:18:52 10° NW 20:24:44 27° N 20:30:05 11° ENE
Cosmos 2180 Rocket 4.4 20:25:04 78° E 20:25:04 78° E 20:31:24 10° NNE
Cosmos 773 Rocket 4.4 20:26:40 59° W 20:27:05 61° WNW 20:32:21 10° NNE
Terra 3.1 20:31:44 32° W 20:31:44 32° W 20:35:59 10° NNW
Cosmos 2279 Rocket 4.1 20:33:00 64° WSW 20:33:47 71° WNW 20:40:02 10° N
Okean 1-7 4.4 20:30:15 10° NNW 20:32:52 36° NNW 20:32:52 36° NNW
Cosmos 2369 Rocket 2.4 20:30:30 10° NNW 20:35:41 67° WNW 20:35:41 67° WNW
NOSS 3-3 (C) 4.4 20:41:10 10° WSW 20:46:41 58° NW 20:53:16 10° NE
USA 267 3.2 20:50:06 76° WSW 20:50:06 76° WSW 20:56:24 10° WNW
Cosmos 1607 4.0 20:50:26 74° WNW 20:50:43 76° NW 20:57:12 10° NE
ACS3 Solar Sail 4.3 20:49:35 10° WSW 20:52:53 14° W 20:56:13 10° NW
SL-16 R/B 2.9 21:05:28 49° WNW 21:05:39 49° NW 21:11:11 10° NNE
Cosmos 1943 4.5 21:30:40 34° NNE 21:30:40 34° NNE 21:33:48 10° NNE
Cosmos 2344 4.1 21:28:09 10° NW 21:36:02 65° NE 21:38:16 52° E
Cosmos 1697 Rocket 4.3 21:39:03 10° NNW 21:43:37 26° NE 21:43:37 26° NE
USA 215 3.6 21:50:30 10° ENE 21:55:58 60° NNE 21:55:58 60° NNE
ATLAS 2AS CENTAUR R/B 3.3 22:10:35 10° NW 22:17:16 49° NE 22:17:28 48° NE
CZ-3B R/B 3.8 22:00:22 10° WNW 22:21:55 74° NNE 22:23:05 63° ENE
Cosmos 1980 Rocket 3.7 22:38:18 10° NNW 22:42:45 32° NE 22:42:45 32° NE
Cosmos 1833 Rocket 4.0 23:16:30 35° NE 23:16:30 35° NE 23:19:47 10° NE
Cosmos 1697 Rocket 4.2 23:22:40 10° NNW 23:25:18 29° NW 23:25:18 29° NW
USA 215 4.0 23:33:21 10° ENE 23:39:36 49° N 23:43:14 25° WNW
H-2A R/B 4.3 23:36:18 10° N 23:38:03 23° N 23:38:03 23° N
CZ-2D R/B 4.0 23:37:19 10° NE 23:41:13 21° E 23:41:13 21° E
Cosmos 2154 Rocket 4.4 23:36:39 10° N 23:41:50 60° NNE 23:41:50 60° NNE
ADEOS II 4.3 23:43:10 10° NE 23:46:18 16° E 23:46:34 16° E
Cosmos 2082 Rocket 3.4 23:54:14 34° ENE 23:54:14 34° ENE 23:58:07 10° NE
